Simultaneous Nadir Overpasses (SNOs) Predictions

Prediction of SNOs over PacNW region [( 10.00, 139.50) to ( 22.70, 165.60)] between AQUA and NPP Satellites:

Table of predicted SNOs over PacNW region for the next 30.0 days since TLE Epoch: 6/23/2017
Index Date (AQUA) Time (AQUA) AQUA Lat,Lon Date (NPP) Time (NPP) NPP Lat,Lon Distance(km) Time Diff (sec)
1 06/25/2017 15:09:40 22.63, 159.86 06/25/2017 15:10:48 23.18, 157.34 265.60 68
2 06/28/2017 03:31:30 22.69, 147.53 06/28/2017 03:28:00 25.99, 145.01 447.39 210
3 07/03/2017 15:59:01 22.59, 147.51 07/03/2017 16:01:31 23.19, 144.66 299.06 150
4 07/11/2017 15:09:27 22.62, 159.90 07/11/2017 15:10:44 23.20, 157.36 267.46 77
5 07/14/2017 03:31:15 22.64, 147.59 07/14/2017 03:27:46 25.41, 145.19 392.15 209
6 07/19/2017 15:58:47 22.60, 147.56 07/19/2017 16:01:27 23.25, 144.70 301.41 160




NCC Satellite Simultaneous Nadir Overpasses (SNOs) Prediction Service
